• In Lithuania
  • List of Countries
  • For 7 days
  • Water Temperature
  • Satellite Maps
  • Weather Map
  • Weather Widgets
  • user-avatar
    Login

    Hourly Weather Guarda

    Today, 21 May, Monday

    Time Temperature Precipitation Wind Pressure Humidity
    00:00 +11°C° 0 mm 1 mps 684 mmHg 81%
    01:00 +11°C° 0 mm 1 mps 684 mmHg 81%
    02:00 +11°C° 0 mm 1 mps 684 mmHg 82%
    03:00 +9°C° 0 mm 0 mps 683 mmHg 82%
    04:00 +11°C° 0 mm 1 mps 684 mmHg 81%
    05:00 +11°C° 0 mm 1 mps 684 mmHg 80%
    06:00 +11°C° 0 mm 1 mps 684 mmHg 77%
    07:00 +13°C° 0 mm 1 mps 685 mmHg 69%
    08:00 +15°C° 0 mm 2 mps 685 mmHg 62%
    09:00 +17°C° 0 mm 2 mps 685 mmHg 54%
    10:00 +18°C° 0 mm 2 mps 685 mmHg 47%
    11:00 +20°C° 0 mm 3 mps 685 mmHg 41%
    12:00 +19°C° 0 mm 3 mps 686 mmHg 44%
    13:00 +20°C° 0.1 mm 3 mps 686 mmHg 41%
    14:00 +21°C° 0.1 mm 3 mps 686 mmHg 37%
    15:00 +21°C° 0.1 mm 3 mps 686 mmHg 33%
    16:00 +21°C° 0 mm 3 mps 685 mmHg 35%
    17:00 +20°C° 0 mm 2 mps 685 mmHg 38%
    18:00 +20°C° 0 mm 2 mps 685 mmHg 40%
    19:00 +17°C° 0 mm 2 mps 685 mmHg 49%
    20:00 +15°C° 0 mm 2 mps 685 mmHg 58%
    21:00 +13°C° 0 mm 1 mps 685 mmHg 67%
    22:00 +12°C° 0 mm 1 mps 685 mmHg 70%
    23:00 +11°C° 0 mm 1 mps 685 mmHg 73%

    Tomorrow, 22 May, Tuesday

    Time Temperature Precipitation Wind Pressure Humidity
    00:00 +11°C° 0 mm 1 mps 685 mmHg 77%
    01:00 +10°C° 0 mm 0 mps 685 mmHg 76%
    02:00 +9°C° 0 mm 0 mps 684 mmHg 76%
    03:00 +9°C° 0 mm 0 mps 684 mmHg 76%
    04:00 +9°C° 0 mm 0 mps 684 mmHg 75%
    05:00 +10°C° 0 mm 0 mps 685 mmHg 74%
    06:00 +10°C° 0 mm 0 mps 685 mmHg 73%
    07:00 +14°C° 0 mm 1 mps 686 mmHg 65%
    08:00 +16°C° 0 mm 1 mps 686 mmHg 56%
    09:00 +20°C° 0 mm 1 mps 687 mmHg 48%
    10:00 +21°C° 0 mm 1 mps 687 mmHg 44%
    11:00 +22°C° 0 mm 1 mps 687 mmHg 41%
    12:00 +23°C° 0 mm 2 mps 688 mmHg 37%
    13:00 +24°C° 0 mm 2 mps 688 mmHg 35%
    14:00 +24°C° 0 mm 2 mps 687 mmHg 34%
    15:00 +25°C° 0 mm 2 mps 687 mmHg 33%
    16:00 +24°C° 0 mm 2 mps 687 mmHg 36%
    17:00 +23°C° 0 mm 2 mps 687 mmHg 40%
    18:00 +23°C° 0 mm 1 mps 687 mmHg 43%
    19:00 +20°C° 0 mm 1 mps 687 mmHg 51%
    20:00 +18°C° 0 mm 1 mps 687 mmHg 58%
    21:00 +15°C° 0 mm 1 mps 687 mmHg 66%
    22:00 +15°C° 0 mm 1 mps 687 mmHg 68%
    23:00 +14°C° 0 mm 1 mps 687 mmHg 71%

    Day after tomorrow, 23 May, Wednesday

    Time Temperature Precipitation Wind Pressure Humidity
    00:00 +12°C° 0 mm 0 mps 687 mmHg 73%
    01:00 +12°C° 0 mm 0 mps 687 mmHg 74%
    02:00 +12°C° 0 mm 0 mps 687 mmHg 74%
    03:00 +12°C° 0 mm 0 mps 687 mmHg 74%
    04:00 +13°C° 0 mm 1 mps 687 mmHg 74%
    05:00 +13°C° 0 mm 1 mps 687 mmHg 73%
    06:00 +13°C° 0 mm 1 mps 687 mmHg 73%
    07:00 +16°C° 0 mm 1 mps 687 mmHg 65%
    08:00 +19°C° 0 mm 1 mps 688 mmHg 57%
    09:00 +20°C° 0 mm 2 mps 689 mmHg 48%
    10:00 +23°C° 0 mm 2 mps 689 mmHg 44%
    11:00 +24°C° 0 mm 2 mps 689 mmHg 40%
    12:00 +25°C° 0 mm 2 mps 689 mmHg 35%
    13:00 +25°C° 0 mm 2 mps 689 mmHg 34%
    14:00 +26°C° 0 mm 3 mps 688 mmHg 33%
    15:00 +26°C° 0 mm 3 mps 688 mmHg 32%
    16:00 +24°C° 0 mm 3 mps 688 mmHg 40%
    17:00 +23°C° 0 mm 2 mps 687 mmHg 49%
    18:00 +20°C° 0 mm 2 mps 687 mmHg 57%
    19:00 +19°C° 0.2 mm 2 mps 687 mmHg 63%
    20:00 +18°C° 0.2 mm 2 mps 687 mmHg 69%
    21:00 +16°C° 0.2 mm 1 mps 687 mmHg 75%
    22:00 +16°C° 0.3 mm 1 mps 687 mmHg 76%
    23:00 +16°C° 0.3 mm 1 mps 687 mmHg 77%

    24 May, Thursday

    Time Temperature Precipitation Wind Pressure Humidity
    00:00 +15°C° 0.3 mm 1 mps 686 mmHg 78%
    01:00 +15°C° 0.5 mm 1 mps 686 mmHg 80%
    02:00 +15°C° 0.5 mm 1 mps 686 mmHg 81%
    03:00 +14°C° 0.5 mm 1 mps 685 mmHg 82%
    04:00 +14°C° 0.3 mm 1 mps 685 mmHg 83%
    05:00 +14°C° 0.3 mm 1 mps 685 mmHg 84%
    06:00 +14°C° 0.3 mm 1 mps 685 mmHg 85%
    07:00 +15°C° 0.4 mm 1 mps 685 mmHg 79%
    08:00 +18°C° 0.4 mm 1 mps 686 mmHg 73%
    09:00 +19°C° 0.4 mm 1 mps 686 mmHg 67%
    10:00 +20°C° 0.6 mm 1 mps 686 mmHg 65%
    11:00 +19°C° 0.6 mm 2 mps 686 mmHg 62%
    12:00 +20°C° 0.6 mm 2 mps 686 mmHg 60%
    13:00 +20°C° 0.8 mm 2 mps 686 mmHg 59%
    14:00 +21°C° 0.8 mm 2 mps 686 mmHg 58%
    15:00 +21°C° 0.8 mm 3 mps 686 mmHg 57%
    16:00 +19°C° 2 mm 3 mps 685 mmHg 66%
    17:00 +17°C° 2 mm 3 mps 685 mmHg 75%
    18:00 +14°C° 2 mm 3 mps 684 mmHg 84%
    19:00 +14°C° 0.5 mm 2 mps 685 mmHg 87%
    20:00 +13°C° 0.5 mm 2 mps 685 mmHg 90%
    21:00 +12°C° 0.5 mm 1 mps 685 mmHg 93%
    22:00 +12°C° 0 mm 1 mps 685 mmHg 93%
    23:00 +12°C° 0 mm 1 mps 685 mmHg 94%

    25 May, Friday

    Time Temperature Precipitation Wind Pressure Humidity
    00:00 +11°C° 0 mm 1 mps 685 mmHg 94%
    01:00 +11°C° 0 mm 1 mps 685 mmHg 94%
    02:00 +11°C° 0 mm 1 mps 685 mmHg 94%
    03:00 +10°C° 0 mm 1 mps 685 mmHg 94%
    04:00 +10°C° 0 mm 1 mps 685 mmHg 94%
    05:00 +10°C° 0 mm 1 mps 685 mmHg 93%
    06:00 +11°C° 0 mm 1 mps 685 mmHg 93%
    07:00 +12°C° 0.1 mm 2 mps 686 mmHg 83%
    08:00 +14°C° 0.1 mm 2 mps 686 mmHg 74%
    09:00 +16°C° 0.1 mm 2 mps 687 mmHg 65%
    10:00 +18°C° 0.1 mm 3 mps 687 mmHg 59%
    11:00 +19°C° 0.1 mm 3 mps 687 mmHg 52%
    12:00 +20°C° 0.1 mm 3 mps 687 mmHg 46%
    13:00 +20°C° 0.2 mm 3 mps 687 mmHg 47%
    14:00 +20°C° 0.2 mm 3 mps 686 mmHg 47%
    15:00 +20°C° 0.2 mm 3 mps 686 mmHg 48%
    16:00 +19°C° 0.4 mm 3 mps 686 mmHg 53%
    17:00 +18°C° 0.4 mm 3 mps 686 mmHg 59%
    18:00 +17°C° 0.4 mm 3 mps 685 mmHg 64%
    19:00 +16°C° 0.2 mm 2 mps 685 mmHg 71%
    20:00 +14°C° 0.2 mm 2 mps 685 mmHg 78%
    21:00 +12°C° 0.2 mm 1 mps 685 mmHg 85%
    22:00 +12°C° 0.1 mm 1 mps 685 mmHg 86%
    23:00 +12°C° 0.1 mm 1 mps 685 mmHg 87%

    26 May, Saturday

    Time Temperature Precipitation Wind Pressure Humidity
    00:00 +11°C° 0.1 mm 1 mps 685 mmHg 87%
    01:00 +11°C° 0 mm 1 mps 684 mmHg 87%
    02:00 +11°C° 0 mm 1 mps 684 mmHg 87%
    03:00 +10°C° 0 mm 1 mps 684 mmHg 88%
    04:00 +11°C° 0 mm 1 mps 684 mmHg 87%
    05:00 +11°C° 0 mm 1 mps 684 mmHg 87%
    06:00 +11°C° 0 mm 1 mps 685 mmHg 86%
    07:00 +13°C° 0 mm 2 mps 685 mmHg 77%
    08:00 +16°C° 0 mm 2 mps 686 mmHg 68%
    09:00 +18°C° 0 mm 3 mps 686 mmHg 59%
    10:00 +19°C° 0 mm 3 mps 687 mmHg 54%
    11:00 +20°C° 0 mm 4 mps 687 mmHg 48%
    12:00 +22°C° 0 mm 4 mps 687 mmHg 43%
    13:00 +22°C° 0 mm 4 mps 687 mmHg 42%
    14:00 +23°C° 0 mm 4 mps 686 mmHg 41%
    15:00 +23°C° 0 mm 4 mps 686 mmHg 41%
    16:00 +22°C° 0 mm 3 mps 686 mmHg 43%
    17:00 +22°C° 0 mm 3 mps 686 mmHg 46%
    18:00 +21°C° 0 mm 3 mps 686 mmHg 49%
    19:00 +19°C° 0 mm 2 mps 686 mmHg 58%
    20:00 +17°C° 0 mm 2 mps 686 mmHg 67%
    21:00 +14°C° 0 mm 1 mps 685 mmHg 76%
    22:00 +14°C° 0 mm 1 mps 685 mmHg 78%
    23:00 +13°C° 0 mm 1 mps 685 mmHg 81%
    Show more